Regional Weather Roundup
Issued by NWS Mt. Holly, NJ

Home | Current Version | Previous Version | Text Only | Print | Product List | Glossary On
Versions: 1 2 3 4 5 6 7 8 9 10 11 12 13 14 15 16 17 18 19 20 21 22 23 24 25 26 27 28 29 30 31 32 33 34 35 36 37 38 39 40 41 42 43 44 45 46 47 48 49 50
000
ASUS41 KPHI 252010
RWRPHI

REGIONAL WEATHER ROUNDUP
NATIONAL WEATHER SERVICE MOUNT HOLLY NJ
300 PM EST SUN JAN 25 2015

NOTE:  "FAIR" INDICATES FEW OR NO CLOUDS BELOW 12,000 FEET WITH NO
SIGNIFICANT WEATHER AND/OR OBSTRUCTIONS TO VISIBILITY.

 * = STATION DOES NOT REPORT PRECIPITATION (E.G. RAIN, SNOW, ETC.)
        OR FOG.

NJZ015>026-252100-
SOUTHERN NEW JERSEY

CITY           SKY/WX    TMP DP  RH WIND       PRES   REMARKS
POMONA         PTSUNNY   49  29  46 W13G22    29.81R
RIO GRANDE*    MOSUNNY   48  30  49 W8        29.80S
MILLVILLE      CLOUDY    49  32  52 W9        29.80F
WRIGHTSTOWN    PTSUNNY   43  31  61 W10       29.79R
MOUNT HOLLY    CLOUDY    44  30  57 NW9       29.82R
TRENTON        CLOUDY    42  28  57 NW12G17   29.80R

$$
NJZ001>014-252100-
NORTHERN NEW JERSEY

CITY           SKY/WX    TMP DP  RH WIND       PRES   REMARKS
SUSSEX         MOSUNNY   35   6  29 NW10G18   29.80R WCI  27
ANDOVER*         N/A     37  10  32 N7        29.79R WCI  32
MORRISTOWN     PTSUNNY   41  14  33 NW12G18   29.80R
NEWARK         PTSUNNY   42  17  36 NW16      29.79R
TETERBORO      MOSUNNY   40  13  33 NW14      29.79R WCI  32
CALDWELL       MOSUNNY   40  10  29 NW14      29.80R WCI  32
SOMERVILLE     PTSUNNY   43  21  41 NW10G17   29.78R
ALLAIRE*       PTSUNNY   43  27  52 W14       29.79R
TOMS RIVER*    PTSUNNY   45  28  53 W13G23    29.82R

$$
PAZ043-044-047-054-055-060>062-066>071-252100-
EASTERN PENNSYLVANIA

CITY           SKY/WX    TMP DP  RH WIND       PRES   REMARKS
PHILADELPHIA   PTSUNNY   46  30  53 W14       29.82R
NORTH PHILA    PTSUNNY   44  29  55 W12       29.83R
BLUE BELL      PTSUNNY   43  32  65 NW8       29.80R
DOYLESTOWN     CLOUDY    38  30  73 NW8       29.80R WCI  32
POTTSTOWN      CLOUDY    39  30  70 W8        29.82R WCI  33
LANCASTER      CLOUDY    38  31  76 NW7       29.80S WCI  33
COATESVILLE    CLOUDY    41  36  81 NW5       29.81R
READING        CLOUDY    39  31  72 W7        29.81R WCI  34
ALLENTOWN      CLOUDY    39  24  55 NW9       29.79S WCI  33
MOUNT POCONO   MOSUNNY   29   9  43 NW12      29.73R WCI  19
HAZLETON       CLOUDY    32  21  64 NW8       29.78S WCI  25
WILKES BARRE   SUNNY     33   9  36 N9        29.81R WCI  25

$$
DEZALL-MDZ008-012-015-019-020-252100-
DELAWARE AND EASTERN MARYLAND

CITY           SKY/WX    TMP DP  RH WIND       PRES   REMARKS
WILMINGTON     PTSUNNY   47  32  56 NW10      29.82S
DOVER          PTSUNNY   48  32  54 W8        29.78S
GEORGETOWN     PTSUNNY   49  30  48 W3        29.83S
EASTON         MOSUNNY   50  32  50 SW7       29.86S
PATUXENT       PTSUNNY   50  28  42 SW7       29.83F
OCEAN CITY     MOSUNNY   49  31  49 W6        29.85R
WALLOPS ISLAND SUNNY     49  29  46 W9        29.86S
CAMBRIDGE      MOSUNNY   52  32  46 SW5       29.83S
SALISBURY      PTSUNNY   50  31  48 SW9       29.84S

$$
PAZ001-021-NYZ056-072-MDZ011-DCZ001-252100-
OTHER NEARBY LOCATIONS

CITY           SKY/WX    TMP DP  RH WIND       PRES   REMARKS
HARRISBURG     CLOUDY    38  31  76 NW8       29.80S WCI  32
STATE COLLEGE  CLOUDY    34  27  75 CALM      29.78S
WILLIAMSPORT   CLOUDY    37  13  37 N5        29.81S WCI  33
BINGHAMTON     SUNNY     20   9  62 NW8       29.80R WCI  10
NEW YORK CITY  MOSUNNY   42  11  28 NW10G20   29.81R
BALTIMORE      CLOUDY    49  30  48 W7        29.80F
WASHINGTON DC  PTSUNNY   50  31  48 SW7       29.83S

$$


USA.gov is the U.S. government's official web portal to all federal, state and local government web resources and services.